Long Prairie, MN

6:48 AM CST on November 19, 2017 (GMT -0600)
Long Prairie

Weather History for K14Y - October, 2013

Change the Weather History Date:

Saturday, October 12, 2013

  Actual Average (KLXL) Record (KLXL)
Temperature  
Mean Temperature 46 °F -  
Max Temperature 50 °F 59 °F 79 °F (1956)
Min Temperature 41 °F 35 °F 15 °F (2012)
Degree Days  
Heating Degree Days 20    
Moisture  
Dew Point 41 °F    
Average Humidity 84    
Maximum Humidity 100    
Minimum Humidity 71    
Precipitation  
Precipitation 0.00 in - - ()
Sea Level Pressure  
Sea Level Pressure 29.87 in    
Wind  
Wind Speed 15 mph (SW)    
Max Wind Speed 24 mph    
Max Gust Speed 30 mph    
Visibility 9 miles    
Events      
Averages and records for this station are not official NWS values.
T = Trace of Precipitation, MM = Missing Value Source: NWS Daily Summary

Daily Weather History Graph

Daily Weather History Graph

Search for Another Location

Airport or City:

Trip Planner

Search our weather history database for the weather conditions in past years. The results will help you decide how hot, cold, wet, or windy it might be!

Date:

Astronomy

Oct. 12, 2013 Rise Set
Actual Time 7:32 AM CDT 6:38 PM CDT
Civil Twilight 7:02 AM CDT 7:08 PM CDT
Nautical Twilight 6:28 AM CDT 7:42 PM CDT
Astronomical Twilight 5:53 AM CDT 8:17 PM CDT
Moon 3:06 PM CDT (10/12) 12:17 AM CDT (10/12)
Length of Visible Light 12h 05m
Length of Day
11h 05m
First Quarter, 59% of the Moon is Illuminated
Oct 12
First Quarter
Oct 18
Full
Oct 26
Last Quarter
Nov 3
New
Nov 9
First Quarter

Hourly Weather History & Observations

Time (CDT) Temp. Windchill Dew Point Humidity Pressure Visibility Wind Dir Wind Speed Gust Speed Precip Events Conditions
12:16 AM 50.0 °F - 44.6 °F 82% 29.63 in 10.0 mi South 24.2 mph 29.9 mph N/A   Overcast
12:36 AM 50.0 °F - 42.8 °F 76% 29.64 in 10.0 mi South 20.7 mph 26.5 mph N/A   Overcast
12:55 AM 50.0 °F - 41.0 °F 71% 29.64 in 10.0 mi South 16.1 mph 27.6 mph N/A   Overcast
1:15 AM 50.0 °F - 42.8 °F 76% 29.65 in 10.0 mi South 13.8 mph 20.7 mph N/A   Overcast
1:35 AM 50.0 °F - 41.0 °F 71% 29.66 in 10.0 mi South 16.1 mph 27.6 mph N/A   Overcast
1:55 AM 48.2 °F - 41.0 °F 76% 29.66 in 10.0 mi SSW 19.6 mph 29.9 mph N/A   Overcast
2:15 AM 48.2 °F - 41.0 °F 76% 29.66 in 10.0 mi South 15.0 mph 19.6 mph N/A   Overcast
2:36 AM 48.2 °F - 41.0 °F 76% 29.66 in 10.0 mi SSW 15.0 mph 24.2 mph N/A   Overcast
2:55 AM 48.2 °F - 41.0 °F 76% 29.67 in 10.0 mi South 20.7 mph 27.6 mph N/A   Overcast
3:16 AM 48.2 °F - 41.0 °F 76% 29.67 in 10.0 mi SSW 21.9 mph 29.9 mph N/A   Overcast
3:35 AM 48.2 °F - 41.0 °F 76% 29.68 in 10.0 mi SSW 13.8 mph 24.2 mph N/A   Overcast
3:55 AM 48.2 °F - 41.0 °F 76% 29.69 in 10.0 mi SW 15.0 mph 21.9 mph N/A   Overcast
4:16 AM 48.2 °F - 41.0 °F 76% 29.69 in 10.0 mi SSW 16.1 mph 24.2 mph N/A   Overcast
4:36 AM 48.2 °F - 41.0 °F 76% 29.69 in 10.0 mi SSW 9.2 mph - N/A   Overcast
4:56 AM 48.2 °F - 41.0 °F 76% 29.69 in 10.0 mi SSW 12.7 mph 23.0 mph N/A   Overcast
5:15 AM 48.2 °F - 41.0 °F 76% 29.70 in 10.0 mi SSW 16.1 mph 23.0 mph N/A   Overcast
5:35 AM 48.2 °F - 41.0 °F 76% 29.71 in 10.0 mi SSW 17.3 mph 24.2 mph N/A   Overcast
5:55 AM 48.2 °F - 41.0 °F 76% 29.71 in 10.0 mi SSW 13.8 mph 24.2 mph N/A   Overcast
6:15 AM 48.2 °F - 41.0 °F 76% 29.72 in 10.0 mi SSW 15.0 mph 23.0 mph N/A   Overcast
6:36 AM 46.4 °F 39.2 °F 41.0 °F 81% 29.72 in 10.0 mi SSW 18.4 mph 24.2 mph N/A   Overcast
6:55 AM 46.4 °F 38.7 °F 41.0 °F 81% 29.72 in 10.0 mi SSW 20.7 mph 27.6 mph N/A   Overcast
7:16 AM 46.4 °F 39.8 °F 41.0 °F 81% 29.72 in 10.0 mi SSW 16.1 mph 23.0 mph N/A   Overcast
7:36 AM 46.4 °F 40.1 °F 41.0 °F 81% 29.73 in 10.0 mi SSW 15.0 mph 25.3 mph N/A   Overcast
7:56 AM 46.4 °F 40.1 °F 41.0 °F 81% 29.75 in 10.0 mi SSW 15.0 mph 26.5 mph N/A   Overcast
8:15 AM 46.4 °F 39.8 °F 41.0 °F 81% 29.75 in 10.0 mi SSW 16.1 mph 23.0 mph N/A   Overcast
8:35 AM 46.4 °F 41.5 °F 41.0 °F 81% 29.76 in 10.0 mi SSW 10.4 mph 20.7 mph N/A   Overcast
8:55 AM 46.4 °F 40.7 °F 41.0 °F 81% 29.77 in 10.0 mi SSW 12.7 mph 19.6 mph N/A   Overcast
9:15 AM 46.4 °F 40.1 °F 41.0 °F 81% 29.77 in 10.0 mi SW 15.0 mph 21.9 mph N/A   Overcast
9:36 AM 44.6 °F 38.4 °F 41.0 °F 87% 29.78 in 5.0 mi SW 12.7 mph 25.3 mph N/A   Overcast
9:56 AM 44.6 °F 38.1 °F 42.8 °F 93% 29.78 in 5.0 mi SSW 13.8 mph 21.9 mph N/A   Overcast
10:15 AM 44.6 °F 38.1 °F 42.8 °F 93% 29.79 in 3.0 mi SSW 13.8 mph 18.4 mph N/A   Overcast
10:35 AM 44.6 °F 37.8 °F 41.0 °F 87% 29.80 in 7.0 mi SSW 15.0 mph 23.0 mph N/A   Overcast
10:56 AM 44.6 °F 37.8 °F 41.0 °F 87% 29.82 in 10.0 mi SW 15.0 mph 23.0 mph N/A   Overcast
11:16 AM 44.6 °F 37.8 °F 41.0 °F 87% 29.82 in 10.0 mi SW 15.0 mph 21.9 mph N/A   Overcast
11:35 AM 44.6 °F 38.8 °F 41.0 °F 87% 29.83 in 5.0 mi WSW 11.5 mph 21.9 mph N/A   Overcast
11:56 AM 44.6 °F 37.8 °F 41.0 °F 87% 29.84 in 7.0 mi SW 15.0 mph 19.6 mph N/A   Overcast
12:16 PM 42.8 °F 36.6 °F 41.0 °F 93% 29.86 in 4.0 mi WSW 11.5 mph 19.6 mph N/A   Overcast
12:36 PM 44.6 °F 38.8 °F 41.0 °F 87% 29.86 in 4.0 mi SW 11.5 mph - N/A   Overcast
12:56 PM 44.6 °F 38.8 °F 41.0 °F 87% 29.87 in 4.0 mi SW 11.5 mph 17.3 mph N/A   Overcast
1:16 PM 42.8 °F 36.6 °F 42.8 °F 100% 29.88 in 2.0 mi SW 11.5 mph 17.3 mph N/A   Drizzle
1:35 PM 42.8 °F 35.8 °F 42.8 °F 100% 29.88 in 2.5 mi SW 13.8 mph 18.4 mph N/A   Drizzle
1:55 PM 44.6 °F 38.4 °F 42.8 °F 93% 29.89 in 5.0 mi WSW 12.7 mph 17.3 mph N/A   Drizzle
2:15 PM 44.6 °F 38.4 °F 42.8 °F 93% 29.90 in 4.0 mi WSW 12.7 mph 21.9 mph N/A   Drizzle
2:35 PM 44.6 °F 38.4 °F 42.8 °F 93% 29.91 in 4.0 mi WSW 12.7 mph 18.4 mph N/A   Drizzle
2:55 PM 44.6 °F 37.8 °F 41.0 °F 87% 29.92 in 7.0 mi WSW 15.0 mph 20.7 mph N/A   Light Drizzle
3:16 PM 44.6 °F 38.8 °F 42.8 °F 93% 29.93 in 7.0 mi WSW 11.5 mph 16.1 mph N/A   Drizzle
3:35 PM 44.6 °F 38.8 °F 42.8 °F 93% 29.94 in 7.0 mi WSW 11.5 mph 19.6 mph N/A   Light Drizzle
3:55 PM 42.8 °F 35.1 °F 41.0 °F 93% 29.95 in 5.0 mi West 16.1 mph 21.9 mph N/A   Light Drizzle
4:16 PM 42.8 °F 37.5 °F 41.0 °F 93% 29.96 in 7.0 mi WSW 9.2 mph 12.7 mph N/A   Light Drizzle
4:36 PM 44.6 °F 38.4 °F 41.0 °F 87% 29.98 in 10.0 mi WSW 12.7 mph 18.4 mph N/A   Overcast
4:55 PM 44.6 °F 39.2 °F 41.0 °F 87% 29.98 in 10.0 mi WSW 10.4 mph 16.1 mph N/A   Overcast
5:15 PM 44.6 °F 38.8 °F 41.0 °F 87% 30.00 in 10.0 mi WSW 11.5 mph 16.1 mph N/A   Overcast
5:36 PM 44.6 °F 39.7 °F 41.0 °F 87% 30.01 in 10.0 mi WSW 9.2 mph 16.1 mph N/A   Overcast
5:56 PM 46.4 °F 41.9 °F 41.0 °F 81% 30.02 in 10.0 mi WSW 9.2 mph - N/A   Overcast
6:16 PM 46.4 °F 41.9 °F 41.0 °F 81% 30.02 in 10.0 mi WSW 9.2 mph - N/A   Overcast
6:35 PM 46.4 °F 42.9 °F 41.0 °F 81% 30.03 in 10.0 mi WSW 6.9 mph - N/A   Overcast
6:56 PM 46.4 °F 43.5 °F 41.0 °F 81% 30.04 in 10.0 mi WSW 5.8 mph - N/A   Overcast
7:16 PM 46.4 °F 42.9 °F 41.0 °F 81% 30.05 in 10.0 mi WSW 6.9 mph - N/A   Overcast
7:36 PM 46.4 °F 42.9 °F 41.0 °F 81% 30.06 in 10.0 mi WSW 6.9 mph - N/A   Overcast
7:56 PM 44.6 °F 41.4 °F 41.0 °F 87% 30.07 in 10.0 mi SW 5.8 mph - N/A   Mostly Cloudy
8:15 PM 44.6 °F 41.4 °F 41.0 °F 87% 30.08 in 10.0 mi SW 5.8 mph - N/A   Mostly Cloudy
8:35 PM 44.6 °F 42.2 °F 41.0 °F 87% 30.08 in 10.0 mi SSW 4.6 mph - N/A   Overcast
8:56 PM 42.8 °F 39.3 °F 41.0 °F 93% 30.10 in 10.0 mi SSW 5.8 mph - N/A   Mostly Cloudy
9:16 PM 42.8 °F 39.3 °F 39.2 °F 87% 30.10 in 10.0 mi SW 5.8 mph - N/A   Scattered Clouds
9:36 PM 42.8 °F 39.3 °F 39.2 °F 87% 30.12 in 10.0 mi SW 5.8 mph - N/A   Mostly Cloudy
9:56 PM 42.8 °F 40.1 °F 39.2 °F 87% 30.13 in 10.0 mi SW 4.6 mph - N/A   Scattered Clouds
10:16 PM 41.0 °F 37.1 °F 37.4 °F 87% 30.13 in 10.0 mi WSW 5.8 mph - N/A   Clear
10:36 PM 41.0 °F 37.1 °F 37.4 °F 87% 30.14 in 10.0 mi SW 5.8 mph - N/A   Clear
10:55 PM 41.0 °F 38.0 °F 35.6 °F 81% 30.15 in 10.0 mi WSW 4.6 mph - N/A   Clear
11:16 PM 42.8 °F 38.6 °F 35.6 °F 76% 30.17 in 10.0 mi WSW 6.9 mph - N/A   Scattered Clouds
11:36 PM 42.8 °F 39.3 °F 35.6 °F 76% 30.17 in 10.0 mi WSW 5.8 mph - N/A   Scattered Clouds
11:55 PM 42.8 °F 39.3 °F 35.6 °F 76% 30.17 in 10.0 mi West 5.8 mph - N/A   Clear